| time (UTC) | temp F | wind direction | speed MPH | gust MPH | rain 1hr in | rain 24hr in | rain mn in | humidity % | barometer mb |
| 20260503211800 | 73 | 302 | 1.0 | 1.0 | 0.00 | 0.00 | 0.00 | 52 | 1017.4 |
| 20260503211256 | 73 | 303 | 1.0 | 1.0 | 0.00 | 0.00 | 0.00 | 53 | 1017.5 |
| 20260503210755 | 73 | 351 | 3.0 | 3.0 | 0.00 | 0.00 | 0.00 | 52 | 1017.5 |
| 20260503210253 | 72 | 300 | 0.0 | 1.0 | 0.00 | 0.00 | 0.00 | 54 | 1017.6 |
| 20260503205748 | 72 | 331 | 0.0 | 0.0 | 0.00 | 0.00 | 0.00 | 50 | 1017.6 |
| 20260503205245 | 75 | 293 | 1.0 | 1.0 | 0.00 | 0.00 | 0.00 | 47 | 1017.8 |
| 20260503204742 | 73 | 257 | 0.0 | 1.0 | 0.00 | 0.00 | 0.00 | 53 | 1017.6 |
| 20260503204240 | 75 | 223 | 3.0 | 3.0 | 0.00 | 0.00 | 0.00 | 54 | 1017.7 |
| 20260503203737 | 74 | 334 | 0.0 | 1.0 | 0.00 | 0.00 | 0.00 | 50 | 1017.6 |
| 20260503203234 | 74 | 327 | 0.0 | 1.0 | 0.00 | 0.00 | 0.00 | 53 | 1017.8 |
| 20260503202731 | 75 | 333 | 2.0 | 3.0 | 0.00 | 0.00 | 0.00 | 51 | 1017.7 |
| 20260503202229 | 73 | 325 | 0.0 | 0.0 | 0.00 | 0.00 | 0.00 | 52 | 1018.0 |
| 20260503201727 | 74 | 326 | 0.0 | 1.0 | 0.00 | 0.00 | 0.00 | 50 | 1018.0 |
| 20260503201224 | 74 | 0 | 0.0 | 1.0 | 0.00 | 0.00 | 0.00 | 56 | 1017.9 |
| 20260503200720 | 72 | 328 | 0.0 | 0.0 | 0.00 | 0.00 | 0.00 | 56 | 1018.1 |
| 20260503200217 | 72 | 302 | 1.0 | 1.0 | 0.00 | 0.00 | 0.00 | 53 | 1018.2 |
| 20260503195713 | 72 | 323 | 0.0 | 0.0 | 0.00 | 0.00 | 0.00 | 48 | 1018.3 |
| 20260503195210 | 73 | 302 | 2.0 | 2.0 | 0.00 | 0.00 | 0.00 | 48 | 1018.3 |
| 20260503194708 | 73 | 117 | 4.0 | 5.0 | 0.00 | 0.00 | 0.00 | 48 | 1018.4 |
| 20260503194204 | 73 | 321 | 0.0 | 1.0 | 0.00 | 0.00 | 0.00 | 50 | 1018.5 |
| 20260503193700 | 72 | 337 | 0.0 | 1.0 | 0.00 | 0.00 | 0.00 | 54 | 1018.4 |
| 20260503193156 | 73 | 31 | 5.0 | 6.0 | 0.00 | 0.00 | 0.00 | 51 | 1018.6 |
| 20260503192651 | 75 | 17 | 2.0 | 2.0 | 0.00 | 0.00 | 0.00 | 48 | 1019.0 |
| 20260503192146 | 73 | 341 | 1.0 | 1.0 | 0.00 | 0.00 | 0.00 | 50 | 1018.8 |
| 20260503191638 | 73 | 306 | 1.0 | 1.0 | 0.00 | 0.00 | 0.00 | 54 | 1019.0 |
| 20260503191135 | 71 | 282 | 0.0 | 1.0 | 0.00 | 0.00 | 0.00 | 56 | 1019.5 |
| 20260503190632 | 71 | 329 | 1.0 | 1.0 | 0.00 | 0.00 | 0.00 | 51 | 1019.3 |
| 20260503190129 | 72 | 348 | 1.0 | 2.0 | 0.00 | 0.00 | 0.00 | 52 | 1019.3 |
| 20260503185626 | 71 | 346 | 3.0 | 6.0 | 0.00 | 0.00 | 0.00 | 51 | 1019.4 |
| 20260503185121 | 71 | 318 | 0.0 | 0.0 | 0.00 | 0.00 | 0.00 | 52 | 1019.5 |
| 20260503184616 | 70 | 312 | 2.0 | 2.0 | 0.00 | 0.00 | 0.00 | 54 | 1019.7 |
| 20260503184113 | 71 | 326 | 1.0 | 1.0 | 0.00 | 0.00 | 0.00 | 51 | 1019.6 |
| 20260503183610 | 72 | 322 | 1.0 | 1.0 | 0.00 | 0.00 | 0.00 | 53 | 1019.6 |
| 20260503183107 | 73 | 317 | 0.0 | 1.0 | 0.00 | 0.00 | 0.00 | 49 | 1019.6 |
| 20260503182605 | 71 | 331 | 1.0 | 1.0 | 0.00 | 0.00 | 0.00 | 48 | 1019.8 |
| 20260503182103 | 71 | 325 | 1.0 | 1.0 | 0.00 | 0.00 | 0.00 | 48 | 1019.6 |
| 20260503181559 | 70 | 23 | 1.0 | 2.0 | 0.00 | 0.00 | 0.00 | 53 | 1019.6 |
| 20260503181056 | 69 | 329 | 0.0 | 1.0 | 0.00 | 0.00 | 0.00 | 51 | 1020.0 |
| 20260503180553 | 70 | 339 | 1.0 | 1.0 | 0.00 | 0.00 | 0.00 | 55 | 1019.9 |
| 20260503180051 | 71 | 315 | 1.0 | 1.0 | 0.00 | 0.00 | 0.00 | 54 | 1019.8 |
| 20260503175548 | 72 | 320 | 0.0 | 0.0 | 0.00 | 0.00 | 0.00 | 52 | 1019.8 |
| 20260503175045 | 71 | 342 | 2.0 | 2.0 | 0.00 | 0.00 | 0.00 | 51 | 1020.0 |
| 20260503174542 | 72 | 319 | 0.0 | 1.0 | 0.00 | 0.00 | 0.00 | 53 | 1020.0 |
| 20260503174038 | 73 | 315 | 1.0 | 1.0 | 0.00 | 0.00 | 0.00 | 49 | 1020.1 |
| 20260503173533 | 71 | 303 | 0.0 | 0.0 | 0.00 | 0.00 | 0.00 | 50 | 1020.2 |
| 20260503173030 | 72 | 339 | 2.0 | 3.0 | 0.00 | 0.00 | 0.00 | 49 | 1020.2 |
| 20260503172528 | 72 | 318 | 1.0 | 2.0 | 0.00 | 0.00 | 0.00 | 54 | 1020.2 |
| 20260503172024 | 72 | 187 | 2.0 | 2.0 | 0.00 | 0.00 | 0.00 | 56 | 1020.2 |
| 20260503171521 | 71 | 332 | 1.0 | 1.0 | 0.00 | 0.00 | 0.00 | 57 | 1020.2 |
| 20260503171018 | 71 | 326 | 1.0 | 1.0 | 0.00 | 0.00 | 0.00 | 54 | 1020.2 |
| 20260503170514 | 69 | 329 | 0.0 | 1.0 | 0.00 | 0.00 | 0.00 | 53 | 1020.2 |
| 20260503150907 | 65 | 319 | 0.0 | 1.0 | 0.00 | 0.00 | 0.00 | 63 | 1020.8 |
| 20260503150403 | 65 | 286 | 2.0 | 2.0 | 0.00 | 0.00 | 0.00 | 63 | 1020.9 |
| 20260503131257 | 55 | 311 | 1.0 | 1.0 | 0.00 | 0.00 | 0.00 | 99 | 1020.4 |
| 20260503130754 | 55 | 318 | 0.0 | 0.0 | 0.00 | 0.00 | 0.00 | 99 | 1020.5 |
| 20260503130251 | 54 | 311 | 0.0 | 0.0 | 0.00 | 0.00 | 0.00 | 99 | 1020.5 |
| 20260503120217 | 47 | 319 | 0.0 | 0.0 | 0.00 | 0.00 | 0.00 | 99 | 1020.1 |
| 20260503110645 | 44 | 320 | 0.0 | 0.0 | 0.00 | 0.00 | 0.00 | 99 | 1019.2 |
| 20260503110142 | 44 | 322 | 0.0 | 0.0 | 0.00 | 0.00 | 0.00 | 99 | 1019.0 |
| 20260503100108 | 44 | 319 | 0.0 | 0.0 | 0.00 | 0.00 | 0.00 | 99 | 1018.8 |
| 20260503081440 | 45 | 321 | 0.0 | 0.0 | 0.00 | 0.00 | 0.00 | 99 | 1017.6 |
| 20260503080937 | 45 | 320 | 0.0 | 0.0 | 0.00 | 0.00 | 0.00 | 99 | 1017.5 |
| 20260503080433 | 46 | 322 | 0.0 | 0.0 | 0.00 | 0.00 | 0.00 | 99 | 1017.5 |
| 20260503072904 | 46 | 319 | 0.0 | 0.0 | 0.00 | 0.00 | 0.00 | 99 | 1017.1 |
| 20260503072401 | 46 | 320 | 0.0 | 0.0 | 0.00 | 0.00 | 0.00 | 99 | 1017.1 |
| 20260503071857 | 46 | 320 | 0.0 | 0.0 | 0.00 | 0.00 | 0.00 | 99 | 1017.0 |
| 20260503071355 | 47 | 320 | 0.0 | 0.0 | 0.00 | 0.00 | 0.00 | 99 | 1017.0 |
| 20260503070850 | 47 | 321 | 0.0 | 0.0 | 0.00 | 0.00 | 0.00 | 99 | 1017.2 |
| 20260503070349 | 47 | 321 | 0.0 | 0.0 | 0.00 | 0.00 | 0.00 | 99 | 1017.1 |
| 20260503060309 | 48 | 323 | 0.0 | 0.0 | 0.00 | 0.00 | 0.00 | 99 | 1017.0 |
| 20260503054755 | 48 | 322 | 0.0 | 0.0 | 0.00 | 0.00 | 0.00 | 99 | 1016.9 |
| 20260503054251 | 48 | 321 | 0.0 | 0.0 | 0.00 | 0.00 | 0.00 | 99 | 1017.0 |
| 20260503053750 | 48 | 319 | 0.0 | 0.0 | 0.00 | 0.00 | 0.00 | 99 | 1016.9 |
| 20260503053243 | 48 | 320 | 0.0 | 0.0 | 0.00 | 0.00 | 0.00 | 99 | 1016.9 |
| 20260503052739 | 48 | 319 | 0.0 | 0.0 | 0.00 | 0.00 | 0.00 | 99 | 1017.1 |
| 20260503052236 | 48 | 323 | 0.0 | 0.0 | 0.00 | 0.00 | 0.00 | 99 | 1017.0 |
| 20260503051731 | 49 | 322 | 0.0 | 0.0 | 0.00 | 0.00 | 0.00 | 99 | 1017.0 |
| 20260503051229 | 49 | 322 | 0.0 | 0.0 | 0.00 | 0.00 | 0.00 | 99 | 1016.8 |
| 20260503050725 | 49 | 324 | 0.0 | 0.0 | 0.00 | 0.00 | 0.00 | 99 | 1016.8 |
| 20260503050221 | 49 | 321 | 0.0 | 0.0 | 0.00 | 0.00 | 0.00 | 99 | 1016.6 |
| 20260503045719 | 49 | 323 | 0.0 | 0.0 | 0.00 | 0.00 | 0.00 | 99 | 1016.5 |
| 20260503045217 | 49 | 319 | 0.0 | 0.0 | 0.00 | 0.00 | 0.00 | 99 | 1016.6 |
| 20260503044713 | 50 | 323 | 0.0 | 0.0 | 0.00 | 0.00 | 0.00 | 99 | 1016.5 |
| 20260503044210 | 50 | 321 | 0.0 | 0.0 | 0.00 | 0.00 | 0.00 | 99 | 1016.7 |
| 20260503043707 | 50 | 322 | 0.0 | 0.0 | 0.00 | 0.00 | 0.00 | 99 | 1016.5 |
| 20260503043205 | 50 | 318 | 0.0 | 0.0 | 0.00 | 0.00 | 0.00 | 99 | 1016.4 |
| 20260503042700 | 50 | 319 | 0.0 | 0.0 | 0.00 | 0.00 | 0.00 | 99 | 1016.3 |
| 20260503042157 | 50 | 321 | 0.0 | 0.0 | 0.00 | 0.00 | 0.00 | 99 | 1016.4 |
| 20260503041653 | 50 | 321 | 0.0 | 0.0 | 0.00 | 0.00 | 0.00 | 99 | 1016.4 |
| 20260503041151 | 50 | 321 | 0.0 | 0.0 | 0.00 | 0.00 | 0.00 | 99 | 1016.2 |
| 20260503040648 | 50 | 323 | 0.0 | 0.0 | 0.00 | 0.00 | 0.00 | 99 | 1016.3 |
| 20260503040146 | 50 | 322 | 0.0 | 0.0 | 0.00 | 0.00 | 0.00 | 99 | 1016.2 |
| 20260503035642 | 50 | 322 | 0.0 | 0.0 | 0.00 | 1.06 | 1.06 | 99 | 1016.1 |
| 20260503035140 | 50 | 316 | 0.0 | 0.0 | 0.00 | 1.06 | 1.06 | 99 | 1016.0 |
| 20260503034637 | 50 | 321 | 0.0 | 0.0 | 0.00 | 1.06 | 1.06 | 99 | 1016.1 |
| 20260503034134 | 50 | 319 | 0.0 | 0.0 | 0.00 | 1.06 | 1.06 | 99 | 1016.1 |
| 20260503033631 | 50 | 321 | 0.0 | 0.0 | 0.00 | 1.06 | 1.06 | 99 | 1015.8 |
| 20260503033129 | 50 | 320 | 0.0 | 0.0 | 0.00 | 1.06 | 1.06 | 99 | 1015.9 |
| 20260503032627 | 50 | 318 | 0.0 | 0.0 | 0.00 | 1.06 | 1.06 | 99 | 1015.7 |
| 20260503032125 | 50 | 319 | 0.0 | 0.0 | 0.00 | 1.06 | 1.06 | 99 | 1015.6 |
| 20260503031622 | 50 | 321 | 0.0 | 0.0 | 0.00 | 1.06 | 1.06 | 99 | 1015.7 |
| 20260503031120 | 50 | 322 | 0.0 | 0.0 | 0.00 | 1.06 | 1.06 | 99 | 1015.7 |
| 20260503030616 | 50 | 320 | 0.0 | 0.0 | 0.00 | 1.06 | 1.06 | 99 | 1015.5 |
| 20260503030113 | 50 | 318 | 0.0 | 0.0 | 0.00 | 1.06 | 1.06 | 99 | 1015.7 |
| 20260503025609 | 51 | 322 | 0.0 | 0.0 | 0.00 | 1.06 | 1.06 | 99 | 1015.3 |
| 20260503025107 | 51 | 323 | 0.0 | 0.0 | 0.00 | 1.06 | 1.06 | 99 | 1015.2 |
| 20260503024603 | 51 | 324 | 0.0 | 0.0 | 0.00 | 1.06 | 1.06 | 99 | 1015.0 |
| 20260503024101 | 51 | 322 | 0.0 | 0.0 | 0.00 | 1.06 | 1.06 | 99 | 1014.9 |
| 20260503023557 | 51 | 322 | 0.0 | 0.0 | 0.00 | 1.06 | 1.06 | 99 | 1014.9 |
| 20260503023054 | 51 | 323 | 0.0 | 0.0 | 0.00 | 1.06 | 1.06 | 99 | 1014.8 |
| 20260503022550 | 51 | 320 | 0.0 | 0.0 | 0.00 | 1.06 | 1.06 | 99 | 1014.9 |
| 20260503022045 | 52 | 322 | 0.0 | 0.0 | 0.00 | 1.06 | 1.06 | 99 | 1014.9 |
| 20260503021542 | 52 | 319 | 0.0 | 0.0 | 0.00 | 1.06 | 1.06 | 99 | 1014.7 |
| 20260503021039 | 52 | 318 | 0.0 | 0.0 | 0.00 | 1.06 | 1.06 | 99 | 1014.7 |
| 20260503020536 | 52 | 318 | 0.0 | 0.0 | 0.00 | 1.06 | 1.06 | 99 | 1014.6 |
| 20260503020033 | 53 | 314 | 0.0 | 0.0 | 0.00 | 1.06 | 1.06 | 99 | 1014.7 |
| 20260503015530 | 53 | 317 | 0.0 | 0.0 | 0.00 | 1.06 | 1.06 | 99 | 1014.5 |
| 20260503015027 | 53 | 321 | 0.0 | 0.0 | 0.00 | 1.06 | 1.06 | 99 | 1014.5 |
| 20260503014523 | 53 | 318 | 0.0 | 0.0 | 0.00 | 1.06 | 1.06 | 99 | 1014.6 |
| 20260503014021 | 53 | 319 | 0.0 | 0.0 | 0.00 | 1.06 | 1.06 | 99 | 1014.6 |
| 20260503013518 | 53 | 317 | 0.0 | 0.0 | 0.00 | 1.06 | 1.06 | 99 | 1014.4 |
| 20260503013016 | 53 | 318 | 0.0 | 0.0 | 0.00 | 1.06 | 1.06 | 99 | 1014.3 |
| 20260503012513 | 54 | 317 | 0.0 | 0.0 | 0.00 | 1.06 | 1.06 | 99 | 1014.3 |
| 20260503012009 | 53 | 319 | 0.0 | 0.0 | 0.00 | 1.06 | 1.06 | 99 | 1014.3 |
| 20260503011506 | 53 | 325 | 0.0 | 0.0 | 0.00 | 1.06 | 1.06 | 99 | 1014.2 |
| 20260503011004 | 53 | 312 | 0.0 | 0.0 | 0.00 | 1.06 | 1.06 | 99 | 1014.0 |
| 20260503010459 | 53 | 320 | 0.0 | 0.0 | 0.00 | 1.06 | 1.06 | 99 | 1013.9 |
| 20260503005957 | 54 | 321 | 0.0 | 0.0 | 0.00 | 1.06 | 1.06 | 99 | 1014.0 |
| 20260503005454 | 54 | 319 | 0.0 | 0.0 | 0.00 | 1.06 | 1.06 | 99 | 1013.9 |
| 20260503004951 | 54 | 323 | 0.0 | 0.0 | 0.00 | 1.06 | 1.06 | 99 | 1013.9 |
| 20260503004447 | 54 | 316 | 0.0 | 0.0 | 0.00 | 1.06 | 1.06 | 99 | 1013.9 |
| 20260503003945 | 54 | 313 | 0.0 | 0.0 | 0.00 | 1.06 | 1.06 | 99 | 1013.7 |
| 20260503003442 | 54 | 317 | 0.0 | 0.0 | 0.00 | 1.06 | 1.06 | 99 | 1014.0 |
| 20260503002939 | 54 | 318 | 0.0 | 0.0 | 0.00 | 1.06 | 1.06 | 99 | 1013.6 |
| 20260503002436 | 55 | 319 | 0.0 | 0.0 | 0.00 | 1.06 | 1.06 | 99 | 1013.8 |
| 20260503001932 | 55 | 321 | 0.0 | 0.0 | 0.00 | 1.06 | 1.06 | 99 | 1013.7 |
| 20260503001429 | 55 | 313 | 0.0 | 0.0 | 0.00 | 1.06 | 1.06 | 99 | 1013.5 |
| 20260503000927 | 55 | 317 | 0.0 | 0.0 | 0.00 | 1.06 | 1.06 | 99 | 1013.7 |
| 20260503000423 | 55 | 317 | 0.0 | 0.0 | 0.00 | 1.06 | 1.06 | 99 | 1013.3 |
| 20260502235920 | 55 | 319 | 0.0 | 0.0 | 0.00 | 1.06 | 1.06 | 99 | 1013.4 |
| 20260502235417 | 55 | 312 | 0.0 | 0.0 | 0.00 | 1.06 | 1.06 | 99 | 1013.2 |
| 20260502234914 | 55 | 321 | 0.0 | 0.0 | 0.00 | 1.06 | 1.06 | 99 | 1013.1 |
| 20260502234410 | 55 | 323 | 0.0 | 0.0 | 0.00 | 1.06 | 1.06 | 99 | 1013.1 |
| 20260502233908 | 55 | 320 | 0.0 | 0.0 | 0.00 | 1.06 | 1.06 | 99 | 1012.9 |
| 20260502233358 | 55 | 324 | 0.0 | 0.0 | 0.00 | 1.06 | 1.06 | 99 | 1012.7 |
| 20260502232855 | 55 | 298 | 0.0 | 1.0 | 0.00 | 1.06 | 1.06 | 99 | 1012.6 |
| 20260502232351 | 55 | 314 | 0.0 | 0.0 | 0.00 | 1.06 | 1.06 | 99 | 1012.8 |
| 20260502231848 | 55 | 317 | 0.0 | 0.0 | 0.00 | 1.06 | 1.06 | 99 | 1012.8 |
| 20260502231346 | 55 | 309 | 0.0 | 0.0 | 0.00 | 1.06 | 1.06 | 99 | 1012.6 |
| 20260502230844 | 55 | 317 | 0.0 | 0.0 | 0.00 | 1.06 | 1.06 | 99 | 1012.7 |
| 20260502230342 | 55 | 311 | 0.0 | 0.0 | 0.00 | 1.06 | 1.06 | 99 | 1012.7 |
| 20260502225838 | 55 | 323 | 0.0 | 0.0 | 0.00 | 1.06 | 1.06 | 99 | 1013.0 |
| 20260502225335 | 55 | 301 | 0.0 | 0.0 | 0.00 | 1.06 | 1.06 | 99 | 1012.7 |
| 20260502224832 | 55 | 321 | 0.0 | 0.0 | 0.00 | 1.06 | 1.06 | 99 | 1012.7 |
| 20260502224328 | 55 | 321 | 0.0 | 0.0 | 0.00 | 1.06 | 1.06 | 99 | 1012.7 |
| 20260502223826 | 55 | 311 | 0.0 | 0.0 | 0.00 | 1.06 | 1.06 | 99 | 1012.7 |
| 20260502223324 | 55 | 319 | 0.0 | 0.0 | 0.00 | 1.06 | 1.06 | 99 | 1012.7 |
| 20260502222821 | 55 | 320 | 0.0 | 0.0 | 0.00 | 1.06 | 1.06 | 99 | 1012.6 |
| 20260502222318 | 56 | 335 | 0.0 | 0.0 | 0.00 | 1.06 | 1.06 | 99 | 1012.6 |
| 20260502221814 | 55 | 322 | 0.0 | 0.0 | 0.00 | 1.06 | 1.06 | 99 | 1012.4 |
| 20260502221310 | 56 | 294 | 2.0 | 3.0 | 0.00 | 1.06 | 1.06 | 99 | 1012.1 |
| 20260502220808 | 56 | 310 | 0.0 | 0.0 | 0.00 | 1.06 | 1.06 | 99 | 1012.2 |
| 20260502220303 | 56 | 312 | 1.0 | 1.0 | 0.00 | 1.06 | 1.06 | 99 | 1012.5 |
| 20260502215800 | 56 | 325 | 0.0 | 0.0 | 0.00 | 1.06 | 1.06 | 99 | 1012.3 |
| 20260502215257 | 56 | 308 | 0.0 | 1.0 | 0.00 | 1.06 | 1.06 | 99 | 1012.4 |
| 20260502214754 | 56 | 316 | 0.0 | 0.0 | 0.00 | 1.06 | 1.06 | 99 | 1012.4 |
| 20260502214251 | 56 | 317 | 1.0 | 1.0 | 0.00 | 1.06 | 1.06 | 99 | 1012.3 |
| 20260502213748 | 56 | 333 | 4.0 | 5.0 | 0.00 | 1.06 | 1.06 | 99 | 1012.3 |
| 20260502213246 | 56 | 320 | 0.0 | 1.0 | 0.00 | 1.06 | 1.06 | 99 | 1012.0 |
| 20260502212744 | 57 | 318 | 0.0 | 0.0 | 0.00 | 1.06 | 1.06 | 99 | 1012.0 |
| 20260502212242 | 57 | 284 | 1.0 | 2.0 | 0.00 | 1.06 | 1.06 | 99 | 1011.9 |